TITAN 3C TRANSTAGE DEB, 26526

Orbit data source: Space-Track

TITAN 3C TRANSTAGE DEB, 26526 is space debris in HEO originally from a launch on Tue, 21 Dec 1965 UTC launched from the Air Force Eastern Test Range (AFETR). Debris objects in space refer to the collection of defunct objects orbiting the Earth. Examples of debris include non-operational satellites, rocket bodies, and fragments generated from explosions, collisions, or faulty payload assembly.

Loading next visibility...
Identifier
26526, 1965-108AM
Orbit
HEO
Last TLE update
9 months ago
Origin
Manufacturer
Unknown
Mission
Spacecraft
Bus & Motor
Unknown
Mass
Unknown
Launch date (UTC)
1965-12-21 (60 years ago)
Launch vehicle
Unknown
Launch site
Air Force Eastern Test Range (AFETR)
Object type
Payload
Rocket body
Debris
Shape & HBR
Unknown
Radar Cross Section
Small (<0.1 m²)

Expand to show TLE details & history

TLE from 9 months ago
0 TITAN 3C TRANSTAGE DEB
1 26526U 65108AM  24298.24131281  .00000584  00000-0  35549-2 0  9993
2 26526  27.0953 271.9805 6511654 243.4914 289.0941  3.11000988 61163
Epoch: 2024-10-24T05:47Z
TLE epoch observation values (Epoch: 2024-10-24T05:47:29.426Z)
Latitude
26.55104°
Longitude
-105.36752°
Altitude
17,158.249 km
Speed
3.711 km/s
True Right ascension
00h 58m 31s
True Declination
26° 30' 34"
Sunlit
Object was in daylight at epoch
Visualization orbit readout
Latitude
-22.16772°
Longitude
-39.48211°
Altitude
24,923.516 km
Speed
2.313 km/s
Apparent Right ascension
05h 59m 02s
Apparent Declination
-30° 21' 23"
Sunlit
Object is in daylight
Visualization observer readout
Local Sidereal Time
01:11:30
Azimuth
124.317° SE
Elevation
-6.804°
Doppler factor
1
Orbital elements
Apogee altitude
26,363.083 km
Perigee altitude
538.959 km
Semi-major axis
19,829.158 km
Eccentricity
0.65117
Inclination
27.0953°
RAAN
271.9805°
Arg. of periapsis
243.4914°
True anomaly
217.79082°
Mean anomaly
289.0941°
Eccentric anomaly
253.34944°
Mean motion
0.7773 °/min
Orbital period
463.14 mins
BSTAR
0.0035549
Loading maneuver chart data...
Loading SW <> Apogee altitude chart data...
|